This is the latest recevied weather packets stored in our database for station/object ZL1CTS-13. If no packets are shown the sender has not sent any weather packets the latest 10 day(s).
| Time | Temp. | Humidity | Pressure | Rain* | Wind** | Luminosity | Snow |
|---|---|---|---|---|---|---|---|
| 1777716604 | 12.22° C | 97% | 1024.3 hPa | 0 mm | - | - | - |
| 1777716004 | 12.22° C | 97% | 1024.5 hPa | 0 mm | - | - | - |
| 1777715404 | 12.22° C | 97% | 1024.4 hPa | 0 mm | - | - | - |
| 1777714804 | 12.22° C | 97% | 1024.3 hPa | 0 mm | - | - | - |
| 1777714204 | 11.67° C | 98% | 1024.2 hPa | 0 mm | - | - | - |
| 1777713604 | 11.67° C | 98% | 1024.3 hPa | 0 mm | - | - | - |
| 1777713004 | 11.67° C | 98% | 1024.2 hPa | 0 mm | - | - | - |
| 1777712403 | 11.11° C | 98% | 1024.2 hPa | 0 mm | - | - | - |
| 1777711805 | 11.11° C | 98% | 1024.1 hPa | 0 mm | - | - | - |
| 1777711204 | 11.67° C | 98% | 1023.9 hPa | 0 mm | - | - | - |
| 1777710604 | 11.67° C | 98% | 1023.9 hPa | 0 mm | - | - | - |
| 1777710004 | 12.22° C | 97% | 1024 hPa | 0 mm | - | - | - |
| 1777709404 | 12.22° C | 97% | 1023.8 hPa | 0 mm | - | - | - |
| 1777708804 | 12.22° C | 96% | 1023.8 hPa | 0 mm | - | - | - |
| 1777708204 | 12.22° C | 96% | 1023.7 hPa | 0 mm | - | - | - |
| 1777707607 | 12.22° C | 95% | 1023.7 hPa | 0 mm | - | - | - |
| 1777707006 | 12.22° C | 95% | 1023.7 hPa | 0 mm | - | - | - |
| 1777706405 | 12.78° C | 95% | 1023.7 hPa | 0 mm | - | - | - |
| 1777705804 | 12.78° C | 94% | 1023.6 hPa | 0 mm | - | - | - |
| 1777705204 | 12.78° C | 93% | 1023.5 hPa | 0 mm | - | - | - |
| 1777704604 | 12.78° C | 93% | 1023.6 hPa | 0 mm | - | - | - |
| 1777704004 | 12.78° C | 93% | 1023.6 hPa | 0 mm | - | - | - |
| 1777703404 | 13.33° C | 93% | 1023.7 hPa | 0 mm | - | - | - |
| 1777702804 | 13.33° C | 92% | 1023.7 hPa | 0 mm | - | - | - |
| 1777702203 | 13.33° C | 90% | 1023.5 hPa | 0 mm | - | - | - |
* Rain latest hour (hover to see other rain measurements)
** Current wind speed in m/s (hover to see current wind gust speed)